Location: Carnières
(50.1682°N, 3.3474°E)
Time: 13:47:32
(UTC+00:00)

Cosmos 1315 Rocket - Pass Details

Date: 23 May 2024
Orbit: 515 x 542 km, 81.2° (Epoch: 18 June)

Event Time Altitude Azimuth Distance (km) Brightness Sun altitude
Exits shadow 01:40:19 27° 203° (SSW) 1,033 3.6 -14.6°
Maximum altitude 01:42:19 73° 282° (WNW) 556 2.7 -14.5°
Drops below altitude 10° 01:46:15 10° 9° (N) 1,789 6.6 -14.2°
Sets 01:48:26 0° 11° (N) 2,689 7.8 -14.0°
